Tracking 29892 objects as of 21-Nov-2024
HD Live streaming from Space Station
objects crossing your sky now

STARLINK-4032

Track STARLINK-4032 now!
10-day predictions
STARLINK-4032 is classified as:


NORAD ID: 52688
Int'l Code: 2022-053AJ
Perigee: 546.1 km
Apogee: 547.7 km
Inclination: 53.2 °
Period: 95.4 minutes
Semi major axis: 6917 km
RCS: Unknown
Launch date: May 18, 2022
Source: United States (US)
Launch site: AIR FORCE EASTERN TEST RANGE (AFETR)
Your satellite tracking list
Your tracking list is empty




NASA's NSSDC Master Catalog

Two Line Element Set (TLE):
1 52688U 22053AJ  24325.84009479  .00004498  00000-0  30054-3 0  9998
2 52688  53.2168 111.1943 0001127  82.4264 277.6857 15.08833580139212
Source of the keplerian elements: AFSPC